KCMH Airport Diagram

We have created a template for each of the higher traffic airports in the vZID airspace. They include KCMH, KCRW, KCVG, KDAY, KIND, KLEX and KSDF. You wil find usefull information including the airport diagram, weather, and specific airport procedures.

KCMH Weather

[Source: ADDS]
METAR
KCMH 180451Z 33007KT 10SM FEW050 FEW250 04/M02 A3044 RMK AO2 SLP309 T00441022 401560044 =
KCMH 180521Z 1806/1906 35005KT P6SM SCT250 FM181400 VRB03KT P6SM SKC
TAF
KCMH 180521Z 1806/1906 35005KT P6SM SCT250 FM181400 VRB03KT P6SM SKC =

KCMH Operations

Calm wind runway(s) up to 10 kts: Arriving/Departing 28L/R

Typically, Rw 10R/28L for departures to the West and South and Rw 10L/28R for departures to the North and East.

FBOs: Lane Aviation midfield near Tower, Signature South of Twy B.

Advise ATC if you have updated scenery for KCMH as there are significant changes to the runway/taxiways on the South side of the airport. Default scenery does not match the Airport Diagram available through the usual sources.

JSN Epic template designed by JoomlaShine.com